Lid_Strength_Index
-0 -0 0 3 11 11 14 12 8 9 9 6 6 7 8 7 9 11 2 1 0 0 -0 -1 -1 -1 -1 -1 -1 -1 -1 -1 -1 -1 -1 -1 -1 -1 -1 -2 -1 -1 -2 -1 -1 -1 -1 -1 -1
0 1 2 6 13 16 15 10 11 8 7 5 6 6 7 9 5 4 3 1 -0 -0 -0 -0 -1 -1 -1 -1 -1 -1 -1 -1 -1 -1 -1 -1 -1 -1 -1 -1 -2 -1 -2 -2 -1 -1 -1 -1 -1
0 1 7 10 13 16 14 9 9 7 6 6 7 5 6 8 4 4 1 0 -0 -0 0 -0 -1 -1 -1 -1 -1 -1 -1 -1 -1 -1 -1 -2 -1 -2 -2 -2 -1 -1 -1 -1 -1 -1 -1 -1 -1
2 4 6 12 14 10 10 9 7 8 6 5 6 8 5 2 3 2 0 0 0 -0 -0 -1 -1 -1 -1 -1 -1 -1 -1 -1 -1 -1 -1 -1 -1 -1 -2 -1 -1 -1 -1 -1 -1 -1 -1 -1 -1
3 6 12 13 13 9 8 7 7 8 7 7 6 8 7 3 1 1 1 0 1 0 -0 -0 -2 -1 -1 -1 -1 -1 -1 -1 -1 -1 -1 -1 -1 -1 -1 -1 -1 -1 -1 -1 -1 -1 -1 -1 -1
7 7 13 15 12 9 8 6 7 7 7 6 7 8 7 2 2 1 1 1 -0 0 0 -0 -1 -1 -1 -1 -1 -1 -1 -1 -1 -1 -1 -1 -1 -1 -1 -1 -1 -1 -1 -1 -1 -1 -1 -1 -1
8 10 13 13 12 10 8 6 8 8 7 7 5 9 6 4 2 1 1 0 0 -0 0 0 0 -1 -1 -1 -1 -1 -1 -1 -1 -1 -1 -1 -1 -1 -1 -1 -1 -1 -1 -1 -1 -1 -1 -1 -1
7 9 12 11 12 11 7 6 6 7 8 4 4 9 9 4 2 1 1 1 1 0 1 1 0 0 0 0 -1 -1 -1 -1 -1 -1 -1 -1 -1 -1 -1 -1 -1 -1 -1 -1 -1 -1 -1 -2 -2
4 11 14 12 11 10 6 8 6 4 6 5 5 5 4 2 2 2 2 2 1 1 1 2 1 1 1 0 -0 -1 -1 -1 -1 -1 -1 -1 0 0 -0 -1 -1 -1 -1 -1 -1 -1 -1 -2 -1
8 12 11 8 7 8 7 7 6 7 7 7 6 4 3 3 3 3 3 3 3 2 1 0 2 2 1 -0 1 0 -0 0 0 0 0 0 0 0 -0 -1 -1 -1 -1 -1 -1 -1 -2 -1 1
8 11 8 7 6 6 7 7 5 7 9 7 7 5 4 4 4 4 3 3 3 2 1 0 0 1 2 0 0 0 0 0 0 -0 0 -0 -0 0 1 0 0 1 0 -0 -1 -1 -1 -0 1
9 7 7 7 6 6 7 5 7 7 7 4 4 4 4 4 4 4 3 3 2 3 1 1 0 0 1 1 0 0 0 1 1 2 1 -0 1 2 1 -0 0 -0 0 -0 0 0 -0 1 1
9 7 6 6 6 6 5 7 7 7 5 4 4 4 4 4 4 3 2 2 2 3 1 1 0 1 0 1 1 1 2 0 0 2 1 1 2 3 2 1 0 0 -0 -0 1 1 1 1 1
6 7 7 6 6 6 7 7 6 6 4 5 4 4 4 4 4 3 3 3 3 2 1 1 1 1 1 2 1 2 3 1 0 0 2 1 1 1 1 1 1 -0 -0 -0 1 2 2 1 0
6 9 7 7 6 7 6 9 9 6 5 5 5 5 4 4 3 4 4 4 3 2 1 1 1 2 2 2 2 2 2 1 0 1 2 1 -0 0 0 -0 2 0 0 0 1 1 2 1 1
9 9 13 8 7 6 7 13 8 5 6 6 5 5 4 4 4 4 4 3 3 2 3 2 0 1 1 1 0 1 2 1 1 1 1 1 1 0 1 1 2 1 0 -0 1 1 2 1 2
10 14 12 11 7 7 9 11 7 5 6 6 6 5 5 4 4 5 4 3 2 2 2 2 1 1 1 1 1 2 1 1 2 1 1 1 0 -0 1 1 1 1 1 0 1 1 2 2 1
14 14 12 12 9 8 10 10 8 7 6 7 6 5 5 5 5 5 4 3 2 1 1 1 1 1 1 2 2 2 2 2 1 2 1 0 0 0 1 0 1 1 1 1 1 1 1 1 1
11 12 12 10 8 10 11 10 9 8 7 7 7 6 5 5 4 4 4 3 2 2 2 1 1 2 2 2 2 2 2 2 2 2 2 1 1 1 1 1 1 1 1 3 2 1 2 2 1
11 13 12 10 9 10 11 11 9 8 8 7 7 7 6 5 5 5 4 3 2 2 2 2 2 2 2 2 1 2 3 1 1 0 0 0 0 1 0 1 1 1 3 3 1 2 2 2 2
11 12 12 12 10 9 10 12 11 9 7 6 6 6 6 5 5 5 5 3 3 3 2 2 1 1 2 1 2 1 1 2 2 2 1 0 -0 -0 -0 -0 0 1 0 1 1 2 2 3 2
14 9 10 11 12 16 11 18 13 11 10 8 7 7 6 5 5 4 5 4 3 3 2 1 1 2 1 1 2 2 2 3 2 2 2 2 1 0 0 0 1 1 1 1 2 1 1 2 3
12 9 10 10 13 14 14 17 14 11 12 10 8 7 6 5 5 4 4 4 3 2 2 2 2 2 1 1 1 1 2 2 1 1 2 2 2 1 1 2 2 2 2 2 3 2 3 3 4
8 9 11 11 13 18 15 15 15 14 12 10 8 7 6 5 5 4 3 3 3 2 2 2 2 2 1 1 1 1 2 2 2 2 2 3 3 3 3 2 3 4 4 4 4 4 4 4 4
9 13 18 19 19 20 15 16 13 11 9 9 9 7 6 5 5 4 4 4 3 3 2 2 2 2 1 1 1 2 2 2 2 2 2 3 3 3 5 5 5 5 4 4 4 5 5 5 5
11 13 16 20 20 18 15 18 14 9 8 7 7 6 6 6 5 5 4 4 3 3 2 2 2 2 2 2 3 3 3 3 3 2 2 2 3 4 5 5 5 5 5 5 5 6 6 5 5
12 14 11 14 15 18 16 14 11 9 9 8 8 7 7 6 6 5 4 4 3 3 3 2 2 3 3 3 3 3 3 2 3 3 3 3 3 4 4 5 5 5 5 4 4 5 4 4 4
10 9 14 14 18 19 17 16 15 13 11 9 9 8 7 6 5 5 4 4 4 3 2 2 2 3 4 3 4 3 3 3 3 3 3 4 4 5 6 6 6 5 4 3 3 4 4 5 6
11 13 12 13 15 17 18 15 11 11 9 10 8 7 7 6 6 5 5 4 5 4 4 4 4 4 4 4 4 4 3 3 3 3 4 5 6 6 6 5 5 5 5 5 5 5 4 4 4
12 13 14 15 15 16 16 15 9 9 8 8 8 7 6 6 5 5 5 5 5 5 5 5 4 4 4 4 4 4 4 4 5 5 5 5 5 5 6 5 5 4 4 4 5 4 4 4 4